Tracking 20093 objects as of 14-Dec-2019
HD Live streaming from Space Station
objects crossing your sky now

FENGYUN 1C DEB

Track FENGYUN 1C DEB now!
10-day predictions


NORAD ID: 30017
Int'l Code: 1999-025MS
Perigee: 548.1 km
Apogee: 879.9 km
Inclination: 98.7 °
Period: 98.9 minutes
Semi major axis: 7084 km
RCS: 0.0357 m2 (small)
Launch date: May 10, 1999
Source: People's Republic of China (PRC)
Launch site: Taiyaun Space Center, China (TSC)

Note: This is SATELLITE DEBRIS
aabbcc
Your satellite tracking list
Your tracking list is empty




NASA's NSSDC Master Catalog

Two Line Element Set (TLE):
1 30017U 99025MS  19348.20035102  .00000110  00000-0  27579-4 0  9990
2 30017  98.6769 250.3104 0234184  42.9118 319.0088 14.55774763685502
Source of the keplerian elements: AFSPC